Location: Goudex
(43.3760°N, 0.9543°E)
Time: 15:41:18
(UTC+00:00)

Cosmos 2360 Rocket - Pass Details

Date: 20 November 2019
Orbit: 832 x 847 km, 71.0° (Epoch: 09 December)

Event Time Altitude Azimuth Distance (km) Brightness Sun altitude
Exits shadow 05:46:52 - 327° (NNW) 2,695 4.4 -12.4°
Reaches altitude 10° 05:47:27 10° 326° (NW) 2,478 4.2 -12.3°
Maximum altitude 05:52:56 52° 252° (WSW) 1,045 2.4 -11.4°
Drops below altitude 10° 05:58:24 10° 177° (S) 2,458 4.9 -10.4°
Sets 06:00:53 0° 172° (S) 3,388 5.7 -10.0°
